Location: Unspecified
(0.0000°N, 0.0000°E)
Time: 00:05:45
(UTC+00:00)

Amateur Radio Satellites - All Passes

Search period start: 28 May 2017 23:35
Search period end: 29 May 2017 23:35
Location: Unspecified, 0.0000°N, 0.0000°E

Satellite Date Start Highest point End Downlink Frequencies (MHz)
Time Altitude Azimuth
50 SAT 28 May 23:36:24 23:37:23 11° 79° (ENE) 23:38:22 437.505
POLYITAN 1 28 May 23:38:15 23:42:30 66° 281° (WNW) 23:46:46 437.675
DUCHIFAT 1 28 May 23:40:57 23:45:11 80° 281° (W) 23:49:27 145.980
VELOX 1 28 May 23:44:31 23:48:47 45° 78° (ENE) 23:53:00 145.980
QB50P2 28 May 23:47:14 23:51:17 43° 282° (WNW) 23:55:22 145.880/145.840
JUGNU 28 May 23:48:54 23:53:34 24° 343° (NNW) 23:58:14 437.505
BUGSAT 1 28 May 23:50:26 23:54:04 28° 102° (ESE) 23:57:42 437.445
UKube-1 29 May 00:02:47 00:04:21 12° 78° (ENE) 00:05:55 .
RS-15 29 May 00:12:29 00:24:02 81° 291° (WNW) 00:36:12 29.354- 29.394
DX 1 29 May 00:13:00 00:16:48 29° 78° (ENE) 00:20:33 434.975-435.025
EO-79 29 May 00:25:10 00:27:33 15° 282° (WNW) 00:29:57 145.935-145.965
SRMSAT 29 May 00:30:28 00:36:26 68° 339° (NNW) 00:42:24 437.500
Gurwin Techsat 1B 29 May 00:57:23 01:02:02 31° 103° (ESE) 01:06:41 435.225
SPROUT 29 May 00:59:01 01:01:20 14° 258° (WSW) 01:03:40 437.525
Oscar 19 29 May 01:00:30 01:05:35 67° 102° (ESE) 01:10:40 437.125/150
YUBILEINY 29 May 01:00:41 01:08:30 38° 273° (W) 01:16:21 435.215
50 SAT 29 May 01:07:40 01:09:59 17° 258° (WSW) 01:12:17 437.505
AO-85 29 May 01:14:10 01:18:03 25° 114° (ESE) 01:21:41 145.980
BUGSAT 1 29 May 01:28:01 01:29:09 11° 282° (WNW) 01:30:18 437.445
UKube-1 29 May 01:36:26 01:40:07 27° 258° (WSW) 01:43:47 .
JUGNU 29 May 01:41:02 01:43:18 12° 351° (N) 01:45:35 437.505
DX 1 29 May 01:51:14 01:52:41 11° 257° (WSW) 01:54:09 434.975-435.025
O/OREOS (USA 219) 29 May 01:51:55 01:56:32 83° 102° (ESE) 02:01:06 437.305
BEESAT 29 May 02:03:35 02:07:34 27° 77° (ENE) 02:11:30 436.000
ITAMSAT 1 29 May 02:08:58 02:12:24 18° 103° (ESE) 02:15:49 435.822/435.867
SRMSAT 29 May 02:20:51 02:25:48 26° 342° (NNW) 02:30:46 437.500
BEESAT 3 29 May 02:32:38 02:36:26 66° 111° (ESE) 02:40:17 437.485
AO-7 29 May 02:32:40 02:40:22 41° 106° (ESE) 02:48:03 .
RS-15 29 May 02:36:19 02:36:43 10° 296° (WNW) 02:37:07 29.354- 29.394
Gurwin Techsat 1B 29 May 02:38:25 02:41:41 17° 283° (WNW) 02:44:58 435.225
AO-85 29 May 02:55:32 02:58:09 15° 290° (WNW) 03:00:42 145.980
MOZHAYETS 4 29 May 03:01:01 03:05:35 77° 78° (ENE) 03:10:10
ITUPSAT 1 29 May 03:08:46 03:13:14 41° 257° (WSW) 03:17:41 437.325
KKS-1 29 May 03:37:42 03:40:51 19° 78° (ENE) 03:43:59 437.445
BEESAT 29 May 03:42:18 03:45:03 15° 257° (WSW) 03:47:48 436.000
ITAMSAT 1 29 May 03:47:08 03:51:34 29° 283° (WNW) 03:56:02 435.822/435.867
ISS 29 May 03:48:33 03:51:16 25° 54° (NE) 03:54:00 437.550
CUBESAT XI-V 29 May 03:53:42 03:58:09 42° 78° (ENE) 04:02:35 437.345
BEESAT 2 29 May 03:56:03 03:59:21 26° 292° (WNW) 04:02:41 435.950
STARS 29 May 04:02:35 04:04:42 13° 78° (ENE) 04:06:50 437.465
SRMSAT 29 May 04:13:00 04:15:40 13° 350° (N) 04:18:22 437.500
AO-7 29 May 04:26:05 04:32:44 27° 287° (WNW) 04:39:27 .
Tancredo 1 29 May 04:28:45 04:31:22 26° 234° (SW) 04:33:59 437.200
PCSat 29 May 04:34:51 04:40:11 64° 71° (ENE) 04:45:32 145.827
DOVE 4 29 May 04:54:46 04:58:44 32° 103° (ESE) 05:02:56 437.250
NO-84 29 May 04:56:20 05:00:28 84° 302° (WNW) 05:04:48 435.350 FM
LilacSat-2 29 May 04:58:55 05:00:58 14° 101° (ESE) 05:03:00 437.200
KKS-1 29 May 05:14:03 05:17:08 19° 257° (WSW) 05:20:12 437.445
JUGNU 29 May 05:20:20 05:23:35 15° 12° (NNE) 05:26:51 437.505
XW-2D 29 May 05:28:31 05:32:06 41° 101° (E) 05:35:42 145.860 - 145.880
XW-2B 29 May 05:36:25 05:40:07 53° 101° (E) 05:43:50 145.730 - 145.750
STARS 29 May 05:37:12 05:40:47 25° 258° (WSW) 05:44:22 437.465
NUDT-PHONESAT 29 May 05:38:18 05:41:49 39° 101° (ESE) 05:45:19 437.300
XW-2F 29 May 05:47:03 05:50:50 79° 101° (E) 05:54:37 145.980 - 146.000
XW-2C 29 May 05:50:06 05:53:55 86° 281° (W) 05:57:43 145.795 - 145.815
KAITUO 1B 29 May 05:50:17 05:54:00 67° 102° (ESE) 05:57:42 145.475/437.950
CUTE-I 29 May 05:59:43 06:05:04 87° 103° (ESE) 06:10:28 437.470
STRAND 1 29 May 06:18:52 06:22:45 22° 77° (ENE) 06:26:37 437.568
LilacSat-2 29 May 06:32:25 06:34:59 17° 281° (WNW) 06:37:31 437.200
SEEDS 29 May 06:34:22 06:36:56 16° 102° (ESE) 06:39:29 437.485
DOVE 4 29 May 06:34:51 06:36:15 11° 280° (W) 06:37:40 437.250
CUBEBUG 2 29 May 06:54:00 06:57:53 25° 102° (ESE) 07:01:46 437.445
UWE-3 29 May 06:59:56 07:02:40 15° 102° (ESE) 07:05:23 435.000/436.395/437.385
XW-2A 29 May 07:00:33 07:03:57 65° 100° (E) 07:07:22 145.665 - 145.685
HO-68 29 May 07:05:57 07:13:08 83° 104° (ESE) 07:20:19 435.675
JUGNU 29 May 07:07:55 07:13:11 32° 19° (NNE) 07:18:28 437.505
CUTE 1.7 + AOD 2 29 May 07:24:17 07:28:19 46° 281° (WNW) 07:32:21 437.475
AAUSAT CUBESAT 2 29 May 07:24:52 07:28:33 33° 101° (E) 07:32:16 437.432
SO-50 29 May 07:48:15 07:52:46 70° 248° (WSW) 07:57:23 436.795
AO-73 29 May 07:50:13 07:54:16 32° 101° (ESE) 07:58:17 145.935
SRMSAT 29 May 07:53:18 07:56:19 14° 11° (N) 07:59:19 437.500
STRAND 1 29 May 07:57:50 08:01:39 22° 257° (WSW) 08:05:28 437.568
ZACube-1 29 May 08:05:22 08:09:53 61° 102° (ESE) 08:14:21 437.345
SEEDS 29 May 08:09:26 08:12:21 19° 281° (WNW) 08:15:15 437.485
M-CUBED/EXP-1 PRIME 29 May 08:28:12 08:32:41 53° 254° (WSW) 08:36:55 437.505
CUBEBUG 2 29 May 08:31:13 08:34:12 17° 282° (WNW) 08:37:11 437.445
UWE-3 29 May 08:34:58 08:38:49 26° 282° (WNW) 08:42:40 435.000/436.395/437.385
PRISM 29 May 08:42:53 08:45:26 16° 78° (ENE) 08:47:57 437.425
TIGRISAT 29 May 08:53:22 08:55:41 14° 78° (ENE) 08:58:01 435.000
DELFI C3 29 May 08:54:20 08:57:52 33° 101° (ESE) 09:01:24 145.870
Oscar 11 29 May 08:56:06 09:00:05 37° 282° (WNW) 09:04:05 .
JUGNU 29 May 08:56:19 09:02:19 85° 20° (NNE) 09:08:21 437.505
FO-29 29 May 09:06:36 09:11:16 29° 78° (ENE) 09:15:43 435.910
UNISAT 6 29 May 09:24:07 09:28:13 47° 78° (ENE) 09:32:18 437.425
AO-73 29 May 09:28:42 09:30:11 11° 282° (WNW) 09:31:40 145.935
SRMSAT 29 May 09:40:59 09:46:06 29° 18° (NNE) 09:51:12 437.500
EO-88 29 May 09:51:02 09:54:28 40° 281° (W) 09:57:55 145.990 - 145.960
RS-15 29 May 09:51:22 09:54:47 12° 65° (ENE) 09:58:09 29.354- 29.394
PRISM 29 May 10:17:28 10:20:26 19° 258° (WSW) 10:23:23 437.425
LO-87 29 May 10:24:56 10:28:19 40° 101° (ESE) 10:31:43 145.935 - 145.965
AIST 2D 29 May 10:26:10 10:28:55 22° 79° (E) 10:31:39 435.315
TIGRISAT 29 May 10:28:54 10:32:07 21° 258° (WSW) 10:35:20 435.000
JUGNU 29 May 10:46:00 10:51:27 36° 200° (SSW) 10:56:53 437.505
FO-29 29 May 10:52:52 10:56:04 16° 255° (WSW) 10:59:10 435.910
EO-79 29 May 10:54:37 10:58:06 26° 78° (ENE) 11:01:34 145.935-145.965
ESTCUBE 1 29 May 11:12:25 11:16:53 83° 281° (WNW) 11:21:22 437.505/2401.250
SPROUT 29 May 11:29:01 11:32:40 27° 102° (ESE) 11:36:19 437.525
SRMSAT 29 May 11:29:28 11:35:25 78° 22° (NNE) 11:41:21 437.500
YUBILEINY 29 May 11:37:05 11:45:36 54° 87° (E) 11:54:07 435.215
NANOSAT C BR1 29 May 11:37:15 11:41:26 78° 260° (W) 11:45:34 145.865
POLYITAN 1 29 May 11:44:39 11:48:43 52° 258° (WSW) 11:52:46 437.675
DUCHIFAT 1 29 May 11:46:25 11:50:32 66° 258° (WSW) 11:54:39 145.980
BUGSAT 1 29 May 11:53:37 11:57:09 29° 78° (ENE) 12:00:37 437.445
QB50P2 29 May 11:53:45 11:57:33 34° 258° (WSW) 12:01:20 145.880/145.840
RS-15 29 May 11:55:39 12:07:17 89° 65° (ENE) 12:18:22 29.354- 29.394
VELOX 1 29 May 11:55:45 12:00:06 67° 103° (ESE) 12:04:29 145.980
Oscar 19 29 May 11:59:46 12:00:15 10° 77° (ENE) 12:00:46 437.125/150
UKube-1 29 May 12:10:04 12:12:37 15° 103° (ESE) 12:15:10 .
DX 1 29 May 12:22:12 12:26:13 39° 102° (ESE) 12:30:17 434.975-435.025
EO-79 29 May 12:32:10 12:33:35 11° 258° (WSW) 12:35:00 145.935-145.965
JUGNU 29 May 12:37:23 12:40:57 16° 193° (SSW) 12:44:30 437.505
50 SAT 29 May 12:50:35 12:53:35 30° 281° (WNW) 12:56:36 437.505
SPROUT 29 May 13:06:47 13:08:18 12° 282° (WNW) 13:09:49 437.525
SRMSAT 29 May 13:19:11 13:24:39 38° 200° (SSW) 13:30:07 437.500
AO-85 29 May 13:25:18 13:29:33 44° 69° (ENE) 13:34:09 145.980
Oscar 19 29 May 13:34:19 13:39:17 46° 257° (WSW) 13:44:14 437.125/150
Gurwin Techsat 1B 29 May 13:35:14 13:40:34 89° 251° (WSW) 13:45:52 435.225
YUBILEINY 29 May 13:36:26 13:42:00 18° 267° (W) 13:47:36 435.215
UKube-1 29 May 13:45:07 13:48:21 21° 282° (WNW) 13:51:38 .
ITUPSAT 1 29 May 13:54:25 13:57:52 20° 103° (ESE) 14:01:19 437.325
O/OREOS (USA 219) 29 May 14:03:06 14:07:28 55° 256° (WSW) 14:11:50 437.305
BEESAT 2 29 May 14:14:11 14:14:53 10° 67° (ENE) 14:15:36 435.950
RS-15 29 May 14:15:47 14:19:21 12° 247° (WSW) 14:22:54 29.354- 29.394
BEESAT 3 29 May 14:24:21 14:28:13 66° 68° (ENE) 14:32:03 437.485
BEESAT 29 May 14:24:41 14:29:19 52° 103° (ESE) 14:33:58 436.000
ITAMSAT 1 29 May 14:42:28 14:47:25 46° 77° (ENE) 14:52:19 435.822/435.867
AO-7 29 May 14:58:35 15:06:47 66° 74° (ENE) 15:14:57 .
SRMSAT 29 May 15:10:33 15:14:16 17° 194° (SSW) 15:17:59 437.500
MOZHAYETS 4 29 May 15:17:40 15:22:13 62° 282° (WNW) 15:26:46
ISS 29 May 15:23:12 15:25:19 16° 126° (SE) 15:27:25 437.550
PCSat 29 May 15:30:46 15:33:12 13° 110° (ESE) 15:35:36 145.827
ITUPSAT 1 29 May 15:31:48 15:35:25 21° 283° (WNW) 15:39:02 437.325
BEESAT 2 29 May 15:49:04 15:52:24 26° 248° (WSW) 15:55:43 435.950
KKS-1 29 May 15:49:19 15:53:06 28° 102° (ESE) 15:56:55 437.445
Tancredo 1 29 May 15:56:59 16:00:00 58° 305° (NW) 16:03:01 437.200
CUBESAT XI-V 29 May 16:11:44 16:16:19 76° 102° (ESE) 16:20:54 437.345
STARS 29 May 16:12:12 16:15:20 19° 103° (ESE) 16:18:29 437.465
JUGNU 29 May 16:19:26 16:21:11 11° 173° (S) 16:22:56 437.505
ITAMSAT 1 29 May 16:26:11 16:26:34 10° 256° (WSW) 16:26:57 435.822/435.867
NO-84 29 May 16:41:55 16:45:01 81° 55° (NE) 16:47:57 435.350 FM
LilacSat-2 29 May 16:54:01 16:55:15 11° 79° (ENE) 16:56:29 437.200
AO-7 29 May 16:54:51 16:59:06 15° 253° (WSW) 17:03:22 .
ISS 29 May 16:59:35 17:01:36 15° 306° (NW) 17:03:37 437.550
CUTE-I 29 May 17:01:26 17:04:42 17° 77° (ENE) 17:07:57 437.470
SRMSAT 29 May 17:04:08 17:04:25 10° 184° (S) 17:04:43 437.500
PCSat 29 May 17:11:18 17:16:19 40° 289° (WNW) 17:21:21 145.827
DOVE 4 29 May 17:15:12 17:20:09 65° 79° (E) 17:24:46 437.250
XW-2D 29 May 17:22:18 17:25:42 32° 79° (E) 17:29:05 145.860 - 145.880
KKS-1 29 May 17:27:30 17:29:24 13° 282° (WNW) 17:31:18 437.445
NUDT-PHONESAT 29 May 17:30:02 17:33:14 28° 79° (ENE) 17:36:26 437.300
XW-2B 29 May 17:30:10 17:33:44 41° 79° (E) 17:37:18 145.730 - 145.750
XW-2F 29 May 17:40:18 17:44:01 59° 79° (ENE) 17:47:44 145.980 - 146.000
KAITUO 1B 29 May 17:42:35 17:46:12 48° 79° (E) 17:49:49 145.475/437.950
XW-2C 29 May 17:43:46 17:47:32 74° 80° (E) 17:51:18 145.795 - 145.815
STARS 29 May 17:48:23 17:51:24 18° 282° (WNW) 17:54:26 437.465
JUGNU 29 May 18:06:36 18:11:00 21° 164° (SSE) 18:15:23 437.505
SO-50 29 May 18:24:14 18:25:22 11° 113° (ESE) 18:26:29 436.795
LilacSat-2 29 May 18:26:22 18:29:15 21° 259° (WSW) 18:32:09 437.200
SEEDS 29 May 18:39:00 18:42:04 19° 78° (ENE) 18:45:07 437.485
CUTE-I 29 May 18:39:48 18:44:28 31° 257° (WSW) 18:49:06 437.470
XW-2A 29 May 18:43:38 18:46:35 29° 79° (E) 18:49:31 145.665 - 145.685
STRAND 1 29 May 18:50:13 18:55:15 57° 102° (ESE) 19:00:19 437.568
SRMSAT 29 May 18:53:10 18:54:48 11° 173° (S) 18:56:26 437.500
HO-68 29 May 18:57:35 19:04:43 70° 76° (ENE) 19:11:50 435.675
CUBEBUG 2 29 May 19:06:30 19:10:11 32° 79° (ENE) 19:13:53 437.445
UWE-3 29 May 19:10:46 19:13:39 18° 78° (ENE) 19:16:32 435.000/436.395/437.385
AAUSAT CUBESAT 2 29 May 19:28:05 19:31:59 38° 79° (ENE) 19:35:51 437.432
CUTE 1.7 + AOD 2 29 May 19:30:36 19:34:33 37° 259° (WSW) 19:38:31 437.475
Oscar 11 29 May 19:31:28 19:32:53 11° 78° (ENE) 19:34:18 .
JUGNU 29 May 19:54:33 20:00:16 53° 159° (SSE) 20:05:58 437.505
AO-73 29 May 19:59:37 20:03:30 40° 78° (ENE) 20:07:25 145.935
SO-50 29 May 20:01:18 20:05:37 37° 292° (WNW) 20:09:52 436.795
SEEDS 29 May 20:14:50 20:17:28 16° 258° (WSW) 20:20:07 437.485
ZACube-1 29 May 20:15:20 20:19:28 84° 81° (E) 20:23:40 437.345
M-CUBED/EXP-1 PRIME 29 May 20:27:40 20:30:54 50° 285° (WNW) 20:34:22 437.505
FO-29 29 May 20:37:23 20:43:05 23° 105° (ESE) 20:48:55 435.910
SRMSAT 29 May 20:40:29 20:44:49 21° 164° (SSE) 20:49:11 437.500
PRISM 29 May 20:45:14 20:47:49 17° 102° (ESE) 20:50:26 437.425
UWE-3 29 May 20:47:21 20:49:51 16° 258° (WSW) 20:52:20 435.000/436.395/437.385
HO-68 29 May 20:50:11 20:52:02 11° 254° (WSW) 20:53:54 435.675
DELFI C3 29 May 20:52:31 20:56:08 32° 79° (ENE) 20:59:42 145.870
TIGRISAT 29 May 21:04:49 21:08:39 25° 102° (ESE) 21:12:29 435.000
Oscar 11 29 May 21:05:01 21:08:44 28° 258° (WSW) 21:12:27 .
UNISAT 6 29 May 21:36:39 21:41:20 77° 102° (ESE) 21:46:02 437.425
EO-88 29 May 21:40:39 21:44:16 61° 259° (W) 21:47:52 145.990 - 145.960
JUGNU 29 May 21:43:34 21:49:17 55° 339° (NNW) 21:55:01 437.505
AIST 2D 29 May 22:13:09 22:14:53 13° 101° (E) 22:16:37 435.315
LO-87 29 May 22:13:22 22:16:21 25° 79° (E) 22:19:17 145.935 - 145.965
PRISM 29 May 22:20:10 22:22:50 17° 282° (WNW) 22:25:31 437.425
FO-29 29 May 22:20:37 22:27:37 46° 283° (WNW) 22:35:02 435.910
QB50P2 29 May 22:26:55 22:28:10 11° 102° (ESE) 22:29:26 145.880/145.840
SRMSAT 29 May 22:28:32 22:34:19 50° 159° (SSE) 22:40:06 437.500
TIGRISAT 29 May 22:42:09 22:45:03 16° 282° (WNW) 22:47:57 435.000
EO-79 29 May 23:00:11 23:04:01 32° 102° (ESE) 23:07:50 145.935-145.965
ESTCUBE 1 29 May 23:26:31 23:30:56 52° 258° (WSW) 23:35:20 437.505/2401.250
